Weather History for Ocean City, MD

Change the Weather History Date:

Wednesday, February 6, 2013

  Actual Average (KSBY) Record (KSBY)
Temperature  
Mean Temperature 36 °F 36 °F  
Max Temperature 48 °F 45 °F 75 °F (2008)
Min Temperature 24 °F 27 °F -2 °F (1996)
Degree Days  
Heating Degree Days 29 29  
Month to date heating degree days 174  
Since 1 July heating degree days 2715  
Cooling Degree Days 0 0  
Month to date cooling degree days 0  
Year to date cooling degree days 0  
Moisture  
Dew Point 28 °F    
Average Humidity 84    
Maximum Humidity 100    
Minimum Humidity 47    
Precipitation  
Precipitation 0.00 in 0.11 in 1.28 in (2004)
Month to date precipitation 0.71  
Year to date precipitation 4.32  
Snow  
Snow 0.00 in 0.20 in 6.10 in (1978)
Month to date snowfall 0.9  
Since 1 July snowfall 5.9  
Snow Depth -    
Sea Level Pressure  
Sea Level Pressure 30.11 in    
Wind  
Wind Speed 3 mph (NNW)    
Max Wind Speed 10 mph    
Max Gust Speed 20 mph    
Visibility 6 miles    
Events      
T = Trace of Precipitation, MM = Missing Value Source: NWS Daily Summary

Daily Weather History Graph

Daily Weather History Graph

Search for Another Location

Airport:

Trip Planner

Search our weather history database for the weather conditions in past years. The results will help you decide how hot, cold, wet, or windy it might be!

Date:

Astronomy

Feb. 06, 2013 Rise Set
Actual Time 7:00 AM EST 5:29 PM EST
Civil Twilight 6:33 AM EST 5:56 PM EST
Nautical Twilight 6:01 AM EST 6:27 PM EST
Astronomical Twilight 5:30 AM EST 6:58 PM EST
Moon 3:40 AM EST (2/6) 1:46 PM EST (2/6)
Length of Visible Light 11h 23m
Length of Day
10h 28m
Waning Crescent, 17% of the Moon is Illuminated
Feb 6
Waning Crescent
Feb 10
New
Feb 17
First Quarter
Feb 25
Full
Mar 4
Last Quarter

Hourly Weather History & Observations

Time (EST) Temp. Windchill Dew Point Humidity Pressure Visibility Wind Dir Wind Speed Gust Speed Precip Events Conditions
12:53 AM 28.9 °F 23.9 °F 28.0 °F 96% 29.92 in 4.0 mi NNW 4.6 mph - N/A   Clear
2:53 AM 30.9 °F 26.2 °F 30.9 °F 100% 29.96 in 3.0 mi NNW 4.6 mph - N/A   Partly Cloudy
3:07 AM 30.2 °F - 30.2 °F 100% 29.96 in 2.5 mi Calm Calm - N/A   Clear
3:34 AM 28.4 °F - 28.4 °F 100% 29.97 in 1.8 mi Calm Calm - N/A   Clear
3:41 AM 26.6 °F - 26.6 °F 100% 29.97 in 2.5 mi Calm Calm - N/A   Clear
3:53 AM 27.0 °F 23.0 °F 27.0 °F 100% 29.97 in 1.8 mi NW 3.5 mph - N/A   Clear
4:31 AM 26.6 °F - 26.6 °F 100% 29.98 in 2.5 mi Calm Calm - N/A   Clear
4:53 AM 26.1 °F - 24.1 °F 92% 29.99 in 2.0 mi Calm Calm - N/A   Clear
5:02 AM 26.6 °F - 24.8 °F 93% 29.99 in 3.0 mi Calm Calm - N/A   Clear
5:17 AM 24.8 °F - 24.8 °F 100% 30.00 in 2.5 mi Calm Calm - N/A   Clear
5:51 AM 24.8 °F - 24.8 °F 100% 30.01 in 3.0 mi Calm Calm - N/A   Clear
5:53 AM 25.0 °F - 24.1 °F 96% 30.01 in 3.0 mi Calm Calm - N/A   Clear
6:35 AM 26.6 °F 21.2 °F 24.8 °F 93% 30.05 in 3.0 mi NNW 4.6 mph - N/A   Clear
6:49 AM 28.4 °F 24.6 °F 26.6 °F 93% 30.06 in 2.5 mi NNW 3.5 mph - N/A   Clear
6:53 AM 28.9 °F 23.9 °F 28.0 °F 96% 30.06 in 2.5 mi NNW 4.6 mph - N/A   Clear
7:10 AM 28.4 °F 23.3 °F 26.6 °F 93% 30.07 in 1.5 mi NNW 4.6 mph - N/A   Clear
7:53 AM 32.0 °F - 32.0 °F 100% 30.10 in 1.2 mi Calm Calm - N/A   Clear
8:17 AM 33.8 °F 29.6 °F 33.8 °F 100% 30.11 in 2.0 mi NNW 4.6 mph - N/A   Clear
8:46 AM 37.4 °F 34.9 °F 35.6 °F 93% 30.12 in 3.0 mi NNW 3.5 mph - N/A   Clear
8:53 AM 37.0 °F 34.5 °F 35.1 °F 93% 30.13 in 4.0 mi NNW 3.5 mph - N/A   Clear
9:53 AM 41.0 °F 34.7 °F 33.1 °F 73% 30.16 in 8.0 mi North 10.4 mph - N/A   Clear
10:53 AM 43.0 °F 37.2 °F 30.0 °F 60% 30.17 in 10.0 mi North 10.4 mph 19.6 mph N/A   Clear
11:53 AM 46.0 °F 41.4 °F 30.0 °F 54% 30.17 in 10.0 mi NNW 9.2 mph - N/A   Clear
12:53 PM 48.0 °F - 28.9 °F 48% 30.16 in 10.0 mi NW 10.4 mph 17.3 mph N/A   Mostly Cloudy
1:53 PM 46.9 °F - 28.9 °F 50% 30.16 in 10.0 mi NW 8.1 mph - N/A   Mostly Cloudy
2:53 PM 46.0 °F 42.5 °F 28.0 °F 50% 30.18 in 10.0 mi NW 6.9 mph - N/A   Clear
3:53 PM 46.0 °F 41.9 °F 27.0 °F 47% 30.19 in 10.0 mi WNW 8.1 mph - N/A   Clear
4:53 PM 43.0 °F 38.8 °F 26.1 °F 51% 30.22 in 10.0 mi NW 6.9 mph - N/A   Clear
5:53 PM 37.0 °F 34.5 °F 25.0 °F 62% 30.25 in 10.0 mi NNW 3.5 mph - N/A   Clear
6:53 PM 33.1 °F 30.0 °F 25.0 °F 72% 30.29 in 10.0 mi North 3.5 mph - N/A   Clear
7:53 PM 30.9 °F - 24.1 °F 76% 30.31 in 10.0 mi Calm Calm - N/A   Clear
8:53 PM 26.1 °F 21.9 °F 23.0 °F 88% 30.33 in 10.0 mi North 3.5 mph - N/A   Clear
9:53 PM 25.0 °F - 24.1 °F 96% 30.35 in 10.0 mi Calm Calm - N/A   Clear
10:53 PM 27.0 °F - 25.0 °F 92% 30.36 in 10.0 mi Calm Calm - N/A   Clear